Flag for U.S.A. Weather past 2 weeks in Redmond, Washington, U.S.A.

Now
62 °F

Clear.


Feels Like: 62 °F
Forecast: 58 / 85 °F
Wind: No wind

Location: Seattle Boeing Field

Current Time: Jul 29, 2015 at 6:40:05 AM

Latest Report: Jul 29, 2015 at 5:53 AM


Visibility: 10 mi

Pressure: 30.18 "Hg

Humidity: 75%

Dew point: 54 °F

Location of RedmondLocation

Historic Weather in Redmond — Graph

°F

Redmond temperature yesterday

Maximum temperature yesterday: 82 °F (at 5:53 PM)
Minimum temperature yesterday: 61 °F (at 2:53 AM)
Average temperature yesterday: 71 °F

Past Weeks' High & Low Weather Summary

 TemperatureHumidityPressure
High97 °F (Jul 19, 3:53 PM)85% (Jul 25, 12:53 AM)30.28 "Hg (Jul 25, 12:53 AM)
Low56 °F (Jul 27, 5:53 AM)17% (Jul 18, 4:53 PM)29.85 "Hg (Jul 22, 5:53 PM)
Average70 °F53%30.04 "Hg
* Reported Jul 14 4:53 AM — Jul 29 4:53 AM, Redmond, Weather by CustomWeather, © 2015

Note: Actual official high and low records may vary slightly from our data, if they occured in-between our weather recording intervals... More about our weather records

Advertising

Redmond weather history for previous 24 hours

 ConditionsComfort  
Time TempWeatherWind HumidityBarometerVisibility
4:53 AM
Wed, Jul 29
63 °FClear.3 mph73%30.18 "Hg10 mi
3:53 AM65 °FClear.No wind66%30.18 "Hg10 mi
2:53 AM66 °FClear.No wind63%30.18 "Hg10 mi
1:53 AM67 °FClear.No wind61%30.19 "Hg10 mi
12:53 AM66 °FClear.No wind63%30.20 "Hg10 mi
11:53 PM
Tue, Jul 28
67 °FClear.5 mph59%30.19 "Hg10 mi
10:53 PM69 °FClear.No wind53%30.19 "Hg10 mi
9:53 PM70 °FClear.5 mph51%30.19 "Hg10 mi
8:53 PM74 °FSunny.5 mph43%30.17 "Hg10 mi
7:53 PM79 °FSunny.6 mph34%30.17 "Hg10 mi
6:53 PM81 °FScattered clouds.9 mph30%30.16 "Hg10 mi
5:53 PM82 °FPassing clouds.7 mph29%30.17 "Hg10 mi
4:53 PM81 °FScattered clouds.9 mph33%30.18 "Hg10 mi
3:53 PM81 °FScattered clouds.9 mph35%30.20 "Hg10 mi
2:53 PM80 °FScattered clouds.9 mph36%30.22 "Hg10 mi
1:53 PM78 °FPassing clouds.6 mph39%30.23 "Hg10 mi
12:53 PM75 °FPassing clouds.7 mph47%30.24 "Hg10 mi
11:53 AM73 °FPassing clouds.5 mph50%30.26 "Hg10 mi
10:53 AM71 °FSunny.6 mph53%30.27 "Hg10 mi
9:53 AM69 °FSunny.6 mph55%30.27 "Hg10 mi
8:53 AM66 °FPassing clouds.3 mph61%30.28 "Hg10 mi
7:53 AM65 °FSunny.No wind63%30.28 "Hg10 mi
6:53 AM62 °FPassing clouds.5 mph70%30.27 "Hg10 mi
Weather by CustomWeather, © 2015

See weather overviewHow to use our weather pages